CW8822 Caguas PR US current weather conditions

sailwx.info

Wind from 152 at 0 knots gusting 7

Air temperature 27.8° C
Dewpoint 22.9° C

Last reported at 2019-Dec-05 21:00 UTC.
Time now 2019-Dec-05 22:16 UTC

Location: N 18°12' W 066°01'.
View on Google Maps.

See reports from other nearby stations

  
Tides and Currents Weather Stations Pressure Air Temp Water Temp Dewpoint Dewpoint Depression Visibility Wind Speed Wind Dir Waves Ship Positions
date/time (UTC)wind fromknots sea level pressurealtimeterstation pressurevisibilityair tempwater tempwave heightnotes
2019-Dec-05 21:00 152 0 gusting 7 27.8
2019-Dec-05 20:45 138 3 gusting 9 27.8
2019-Dec-05 20:30 158 3 gusting 9 27.8
2019-Dec-05 20:15 126 4 gusting 10 28.3
2019-Dec-05 20:00 142 4 gusting 10 28.3
2019-Dec-05 19:45 070 3 gusting 12 28.3
2019-Dec-05 19:30 098 6 gusting 12 28.3
2019-Dec-05 19:15 214 3 gusting 12 28.3
2019-Dec-05 19:00 117 7 gusting 13 28.3
2019-Dec-05 18:45 114 4 gusting 11 28.9
2019-Dec-05 18:30 121 6 gusting 11 28.9
2019-Dec-05 18:15 086 6 gusting 13 28.3
2019-Dec-05 18:00 107 6 gusting 13 28.3
2019-Dec-05 17:45 090 5 gusting 10 28.9
2019-Dec-05 17:30 090 6 gusting 13 28.9
2019-Dec-05 17:15 132 5 gusting 13 28.9
2019-Dec-05 17:00 101 5 gusting 11 29.4
2019-Dec-05 16:45 103 4 gusting 11 28.9
2019-Dec-05 16:30 171 6 gusting 12 28.9
2019-Dec-05 16:15 169 6 gusting 13 28.3
2019-Dec-05 16:00 109 6 gusting 13 28.3
2019-Dec-05 15:47 104 6 gusting 13 28.3
2019-Dec-05 15:31 117 3 gusting 11 28.9
2019-Dec-05 15:17 157 5 gusting 10 28.3
2019-Dec-05 15:01 140 0 gusting 7 28.3
2019-Dec-05 14:47 103 2 gusting 8 27.2
2019-Dec-05 14:31 091 5 gusting 10 27.2
2019-Dec-05 14:16 166 2 gusting 6 27.8
2019-Dec-05 14:02 180 2 gusting 9 28.3
2019-Dec-05 13:46 174 0 gusting 8 27.8
2019-Dec-05 13:31 097 1 gusting 5 27.2
2019-Dec-05 13:17 078 2 gusting 8 26.7
2019-Dec-05 13:01 200 1 gusting 6 27.8
2019-Dec-05 12:45 163 1 gusting 6 27.2
2019-Dec-05 12:31 160 0 gusting 6 26.7
2019-Dec-05 12:16 112 1 gusting 4 26.7
2019-Dec-05 12:00 143 0 gusting 6 25.6
2019-Dec-05 11:45 117 25.0
2019-Dec-05 11:30 140 0 gusting 2 24.4
2019-Dec-05 11:15 196 1 gusting 6 24.4
2019-Dec-05 11:00 143 1 gusting 3 24.4
2019-Dec-05 10:45 119 0 gusting 6 23.9
2019-Dec-05 10:30 113 1 gusting 3 23.9
2019-Dec-05 10:15 020 23.9
2019-Dec-05 10:00 158 1 gusting 6 24.4
2019-Dec-05 09:45 161 1 gusting 6 24.4
2019-Dec-05 09:30 087 1 gusting 4 24.4
2019-Dec-05 09:15 126 2 gusting 6 24.4
2019-Dec-05 09:00 117 1 gusting 4 24.4
2019-Dec-05 08:45 178 1 gusting 6 24.4
2019-Dec-05 08:30 120 2 gusting 6 24.4
2019-Dec-05 08:15 165 3 gusting 7 24.4
2019-Dec-05 08:00 171 2 gusting 6 23.9
2019-Dec-05 07:45 155 1 gusting 4 23.9
2019-Dec-05 07:30 259 0 gusting 2 23.9
2019-Dec-05 07:03 271 0 gusting 1 23.9
2019-Dec-05 06:47 262 0 gusting 1 23.9
2019-Dec-05 06:32 223 0 gusting 2 23.9
2019-Dec-05 06:17 182 0 gusting 2 23.9
2019-Dec-05 06:01 196 0 gusting 2 24.4
2019-Dec-05 05:47 140 0 gusting 4 24.4
2019-Dec-05 05:31 148 1 gusting 5 24.4
2019-Dec-05 05:16 130 1 gusting 3 23.9
2019-Dec-05 05:02 051 0 gusting 5 24.4
2019-Dec-05 04:46 151 1 gusting 5 24.4
2019-Dec-05 04:31 153 1 gusting 4 24.4
2019-Dec-05 04:16 128 24.4
2019-Dec-05 04:00 137 24.4
2019-Dec-05 03:46 125 0 gusting 1 24.4
2019-Dec-05 03:31 117 1 gusting 3 24.4
2019-Dec-05 03:17 106 1 gusting 3 24.4
2019-Dec-05 03:01 134 1 gusting 6 24.4
2019-Dec-05 02:45 182 1 gusting 6 24.4
2019-Dec-05 02:31 252 1 gusting 3 25.0
2019-Dec-05 02:16 191 25.6
2019-Dec-05 02:01 191 25.0
2019-Dec-05 01:45 217 0 gusting 1 25.0
2019-Dec-05 01:31 269 25.0
2019-Dec-05 01:16 269 25.0
2019-Dec-05 01:01 262 0 gusting 3 25.6
2019-Dec-05 00:46 193 1 gusting 3 25.6
2019-Dec-05 00:31 131 0 gusting 5 25.6
2019-Dec-05 00:15 150 2 gusting 6 25.6
2019-Dec-05 00:00 167 1 gusting 4 25.6
2019-Dec-04 23:46 115 1 gusting 5 25.6
2019-Dec-04 23:30 148 0 gusting 4 25.6
2019-Dec-04 23:16 111 1 gusting 3 26.1
2019-Dec-04 23:00 178 2 gusting 5 26.1
2019-Dec-04 22:45 213 3 gusting 5 26.1
2019-Dec-04 22:30 173 0 gusting 3 25.6
2019-Dec-04 22:15 121 0 gusting 2 26.1
2019-Dec-04 22:00 118 0 gusting 3 26.1
2019-Dec-04 21:45 138 0 gusting 3 26.1
2019-Dec-04 21:30 185 26.7
2019-Dec-04 21:15 154 1 gusting 3 26.7
2019-Dec-04 21:00 122 0 gusting 4 26.7
2019-Dec-04 20:45 113 1 gusting 3 26.7
2019-Dec-04 20:30 115 2 gusting 6 26.7
2019-Dec-04 20:16 124 1 gusting 6 26.7
2019-Dec-04 20:00 132 1 gusting 6 26.7
2019-Dec-04 19:45 132 2 gusting 6 27.2
2019-Dec-04 19:30 123 1 gusting 6 27.2
2019-Dec-04 19:15 109 3 gusting 6 27.2
2019-Dec-04 19:00 139 3 gusting 7 27.2
2019-Dec-04 18:45 136 3 gusting 8 27.2
2019-Dec-04 18:30 126 3 gusting 7 27.8
2019-Dec-04 18:15 150 2 gusting 9 28.3
2019-Dec-04 18:00 088 3 gusting 10 28.3
2019-Dec-04 17:45 103 4 gusting 10 27.8
2019-Dec-04 17:30 140 5 gusting 13 27.8
2019-Dec-04 17:15 094 3 gusting 12 28.3
2019-Dec-04 17:00 133 5 gusting 10 27.8
2019-Dec-04 16:45 125 1 gusting 6 27.8
2019-Dec-04 16:30 173 6 gusting 11 27.8
2019-Dec-04 16:15 187 2 gusting 7 27.8
2019-Dec-04 15:47 144 1 gusting 5 26.1
2019-Dec-04 15:31 150 25.6
2019-Dec-04 15:16 145 3 gusting 8 25.0
2019-Dec-04 15:01 139 2 gusting 11 24.4
2019-Dec-04 14:46 167 6 gusting 12 26.1
2019-Dec-04 14:31 198 1 gusting 6 28.3
2019-Dec-04 14:16 134 1 gusting 8 29.4
2019-Dec-04 14:02 219 0 gusting 7 28.3
2019-Dec-04 13:47 109 3 gusting 6 27.8
2019-Dec-04 13:31 153 1 gusting 7 28.3
2019-Dec-04 13:16 091 2 gusting 4 27.8
2019-Dec-04 13:01 231 0 gusting 7 27.2
2019-Dec-04 12:46 060 1 gusting 8 26.1
2019-Dec-04 12:31 189 1 gusting 4 25.6
2019-Dec-04 12:15 169 1 gusting 5 25.0
2019-Dec-04 12:00 190 0 gusting 2 23.9
2019-Dec-04 11:46 115 0 gusting 6 25.0
2019-Dec-04 11:30 123 0 gusting 4 24.4
2019-Dec-04 11:15 145 23.9
2019-Dec-04 11:00 260 0 gusting 2 23.9
2019-Dec-04 10:45 127 1 gusting 4 24.4
2019-Dec-04 10:30 099 0 gusting 2 23.3
2019-Dec-04 10:15 089 0 gusting 1 23.9
2019-Dec-04 10:00 089 23.9
2019-Dec-04 09:45 070 1 gusting 2 23.3
2019-Dec-04 09:30 009 23.9
2019-Dec-04 09:15 005 0 gusting 1 23.3
2019-Dec-04 09:00 067 23.9
2019-Dec-04 08:45 178 0 gusting 3 24.4
2019-Dec-04 08:30 252 0 gusting 1 23.3
2019-Dec-04 08:15 248 0 gusting 1 23.3
2019-Dec-04 08:00 207 23.9
2019-Dec-04 07:45 090 23.9
2019-Dec-04 07:30 195 23.9
2019-Dec-04 07:15 188 0 gusting 1 23.3
2019-Dec-04 07:00 112 0 gusting 1 23.3
2019-Dec-04 06:45 114 0 gusting 2 23.3
2019-Dec-04 06:32 173 24.4
2019-Dec-04 06:16 173 25.0
2019-Dec-04 06:02 187 1 gusting 3 25.0
2019-Dec-04 05:47 179 25.0
2019-Dec-04 05:32 155 0 gusting 4 24.4
2019-Dec-04 05:17 302 0 gusting 1 23.9
2019-Dec-04 05:02 173 25.0
2019-Dec-04 04:46 225 1 gusting 3 23.9
2019-Dec-04 04:32 267 24.4
2019-Dec-04 04:16 131 25.0
2019-Dec-04 04:01 180 1 gusting 4 24.4
2019-Dec-04 03:46 142 0 gusting 1 24.4
2019-Dec-04 03:31 128 1 gusting 5 25.0
2019-Dec-04 03:16 184 2 gusting 5 25.0
2019-Dec-04 03:01 168 25.0
2019-Dec-04 02:46 132 0 gusting 2 25.0
2019-Dec-04 02:31 159 1 gusting 5 24.4
2019-Dec-04 02:15 106 1 gusting 3 23.9
2019-Dec-04 02:01 091 1 gusting 5 23.9
2019-Dec-04 01:46 122 0 gusting 6 25.6
2019-Dec-04 01:31 203 0 gusting 3 25.0
2019-Dec-04 01:16 223 0 gusting 1 25.0
2019-Dec-04 01:01 084 0 gusting 2 25.0
2019-Dec-04 00:45 178 25.6
2019-Dec-04 00:31 147 2 gusting 5 25.6
2019-Dec-04 00:16 176 3 gusting 6 25.0
2019-Dec-04 00:00 246 1 gusting 3 25.0
2019-Dec-03 23:45 155 1 gusting 2 25.0
2019-Dec-03 23:31 109 0 gusting 5 25.0
2019-Dec-03 23:15 094 3 gusting 5 25.0
2019-Dec-03 23:01 145 1 gusting 5 25.0
2019-Dec-03 22:46 068 2 gusting 6 25.0
2019-Dec-03 22:31 085 2 gusting 6 25.6
2019-Dec-03 22:16 162 1 gusting 6 25.6
2019-Dec-03 22:01 161 3 gusting 7 26.1